Dewpoint
26 24 23 24 25 29 26 25 25 27 30 41 52 51 57 59 59 58 57 57 57 56 57 59 61 63 66 67 68 69 70 70 69 69 69 68 68 68 68 67 67 68 70 72
25 23 24 27 27 25 25 24 23 27 43 48 51 51 53 59 58 58 57 57 57 57 58 60 62 64 66 67 68 69 70 70 70 69 69 69 68 68 69 66 65 66 69 71
24 22 24 24 23 23 22 22 21 24 43 48 49 46 49 57 59 57 57 57 57 58 57 59 61 63 65 66 68 69 70 70 70 69 68 69 69 69 67 66 68 70 71 72
22 23 20 19 18 20 18 21 20 24 39 34 43 36 42 48 54 57 57 58 57 59 58 60 60 62 65 66 67 68 69 70 70 69 68 68 67 66 67 66 70 71 71 71
19 23 21 23 23 19 19 36 40 41 38 36 40 39 40 50 48 52 57 58 58 58 59 59 60 62 65 66 66 68 69 69 70 69 68 67 67 67 67 68 69 71 71 70
24 26 25 24 24 21 33 35 27 36 36 24 35 38 36 38 44 48 54 57 58 58 59 59 61 63 66 67 67 68 68 69 69 69 68 67 67 67 67 67 68 70 70 70
22 22 23 23 21 24 25 23 18 18 24 25 36 39 39 40 43 48 49 52 56 58 57 58 60 64 66 66 67 67 68 68 69 69 68 68 67 67 67 67 67 68 69 69
20 18 19 21 19 18 24 18 16 15 20 18 34 33 35 46 47 46 50 50 57 58 57 57 60 63 64 63 67 67 68 67 68 68 69 68 68 68 67 68 69 69 70 69
18 18 21 20 20 18 22 18 23 21 27 25 26 34 40 44 47 46 50 51 53 58 59 58 59 63 64 65 66 67 68 68 68 68 69 68 69 68 68 68 69 69 70 71
24 20 21 21 18 20 18 21 19 19 19 19 21 34 38 43 46 47 50 53 54 54 59 59 61 63 63 64 66 68 68 68 67 68 68 68 68 69 69 69 69 69 70 70
21 21 22 21 20 17 17 19 20 20 21 19 23 28 39 46 48 48 52 55 54 55 57 59 61 63 64 63 65 68 68 67 67 67 68 68 68 69 69 69 69 69 70 71
26 20 21 21 24 27 18 22 23 24 28 27 28 30 38 49 51 54 53 53 55 57 56 59 62 63 64 64 66 68 68 68 68 69 68 68 69 69 68 69 69 70 70 71
32 25 22 22 23 27 32 32 31 31 32 30 30 29 42 44 47 49 53 50 54 59 59 60 61 62 64 65 66 67 68 68 68 69 68 69 69 69 69 69 70 70 70 70
41 25 24 25 24 27 32 33 33 30 29 30 33 33 39 43 43 44 48 54 52 58 60 60 61 62 63 65 66 67 68 68 69 69 69 69 69 70 70 70 70 70 70 70
35 30 37 31 27 29 30 30 33 32 32 30 31 35 38 40 41 43 49 49 52 52 57 60 60 62 63 66 67 68 68 69 70 69 69 69 69 70 70 70 70 70 70 70
35 34 38 33 36 35 34 32 32 34 36 34 38 35 44 44 45 48 49 50 52 54 53 56 61 62 63 64 67 68 69 69 70 69 69 70 70 70 70 70 70 71 71 71
32 35 34 33 35 33 31 33 33 38 46 43 38 40 51 45 44 46 51 53 52 53 54 57 58 62 63 64 66 67 68 69 70 69 69 70 70 70 70 70 71 70 70 71
32 35 35 32 33 29 33 48 45 45 51 52 51 51 52 53 54 53 54 55 55 57 56 57 58 62 63 64 65 66 67 68 69 69 69 69 69 70 70 70 70 71 71 71
32 34 32 31 31 32 35 44 45 44 44 53 53 52 52 53 54 51 54 56 57 58 58 59 59 60 62 63 66 66 67 67 68 68 68 68 69 69 69 70 70 71 71 71
35 34 31 32 30 28 39 45 49 49 40 53 54 53 53 52 46 51 55 57 55 57 58 60 61 61 61 63 66 67 66 67 67 68 68 68 69 69 69 69 70 70 70 68
35 38 31 31 30 34 44 48 50 39 39 55 56 56 54 50 52 54 57 57 57 57 59 59 60 61 62 63 66 67 68 67 68 69 69 70 70 70 71 69 68 67 66 64
35 36 36 37 36 35 46 47 43 48 52 55 56 55 55 54 55 55 55 55 56 58 59 60 60 60 60 63 63 64 67 70 70 70 70 70 71 70 68 67 65 64 62 60
34 35 34 37 38 45 49 52 52 53 52 52 54 54 54 54 53 54 54 54 55 57 60 61 62 60 60 62 64 63 64 70 70 70 70 69 68 67 66 64 62 60 59 56
39 39 36 36 40 48 50 51 50 52 52 53 54 53 53 52 52 52 53 53 54 56 60 62 62 62 61 62 63 64 68 70 70 68 67 66 66 64 63 62 60 58 55 55
38 39 37 37 40 43 44 47 47 47 49 49 48 48 48 49 49 50 51 52 53 55 60 61 61 62 62 63 62 67 68 67 66 65 64 63 64 63 60 58 58 55 56 55
40 38 38 37 40 41 42 44 48 48 48 48 47 46 46 46 46 48 50 52 53 53 57 60 60 59 61 63 64 66 64 65 64 63 63 62 62 61 60 58 55 49 48 47
Lifted_Index
6 5 5 5 4 4 3 2 2 2 1 -0 -2 -3 -3 -4 -3 -2 -1 -1 -1 -1 -1 -1 -1 -1 -1 -2 -2 -2 -2 -3 -3 -2 -2 -2 -1 -1 -1 -1 -1 -1 -1 -1
5 5 5 5 4 4 3 2 2 1 0 -1 -2 -2 -3 -3 -3 -3 -2 -1 -1 -1 -1 -1 -1 -1 -1 -1 -1 -2 -2 -2 -2 -2 -2 -1 -1 -1 -1 -1 -1 -1 -1 -1
5 5 5 5 4 4 3 2 2 1 -0 -1 -1 -1 -1 -2 -3 -3 -2 -1 -1 -1 -1 -1 -1 -2 -2 -1 -1 -2 -2 -2 -2 -2 -2 -1 -1 -1 -0 -0 -0 -1 -1 -1
5 5 4 3 3 3 3 2 2 1 0 -0 -0 0 0 -0 -1 -2 -2 -2 -1 -1 -2 -2 -2 -2 -2 -2 -1 -2 -2 -2 -2 -2 -2 -1 -1 -1 -0 -0 -1 -1 -2 -2
4 4 3 2 2 2 2 2 1 1 0 0 0 0 0 0 -0 -1 -1 -2 -2 -1 -2 -2 -2 -2 -2 -2 -2 -2 -2 -2 -3 -3 -2 -2 -1 -1 -1 -1 -1 -2 -2 -2
3 3 2 1 1 1 2 1 1 1 0 0 0 0 0 -0 -0 -0 -1 -1 -1 -1 -1 -2 -2 -2 -2 -2 -2 -2 -2 -2 -3 -3 -3 -2 -1 -1 -1 -1 -1 -2 -2 -2
2 2 2 1 1 1 1 1 1 1 0 0 0 0 0 0 -0 -0 -0 -1 -1 -1 -1 -2 -2 -2 -2 -2 -2 -2 -2 -2 -2 -3 -3 -3 -2 -1 -1 -1 -1 -2 -2 -2
1 1 1 1 1 1 1 1 1 1 0 0 1 1 1 0 -0 -1 -1 -1 -1 -1 -1 -2 -2 -2 -2 -2 -2 -2 -2 -2 -2 -3 -3 -3 -2 -1 -1 -1 -1 -2 -2 -2
1 1 1 1 1 1 1 1 1 1 0 0 1 1 1 1 -0 -1 -2 -2 -2 -1 -1 -1 -2 -2 -2 -2 -2 -2 -2 -2 -3 -3 -3 -3 -2 -2 -2 -2 -2 -2 -2 -2
1 1 1 1 1 0 0 1 1 0 0 0 0 1 1 0 -0 -2 -2 -2 -2 -2 -1 -1 -1 -2 -2 -2 -2 -2 -2 -2 -3 -3 -3 -3 -2 -2 -2 -2 -2 -2 -2 -2
1 1 1 1 1 0 0 0 -0 -0 -0 -0 0 0 0 -0 -1 -2 -2 -3 -3 -2 -2 -2 -2 -2 -2 -2 -2 -2 -2 -2 -3 -3 -3 -3 -2 -2 -2 -3 -3 -2 -2 -2
1 1 1 1 1 1 0 0 0 -0 -0 0 0 0 -0 -0 -1 -1 -2 -3 -3 -3 -2 -2 -2 -2 -2 -2 -2 -2 -2 -3 -3 -3 -3 -3 -3 -2 -2 -3 -3 -3 -2 -3
1 1 1 1 1 0 0 0 0 0 0 0 0 0 0 -0 -1 -1 -1 -2 -3 -3 -3 -3 -2 -2 -3 -3 -3 -2 -3 -3 -3 -3 -3 -3 -3 -3 -3 -3 -3 -3 -3 -3
1 1 1 1 1 1 0 0 0 0 0 0 0 1 0 -0 -0 -0 -0 -1 -2 -3 -3 -3 -3 -3 -3 -3 -3 -3 -3 -3 -3 -3 -3 -3 -3 -3 -3 -3 -3 -3 -4 -4
1 1 1 1 1 1 1 1 1 0 0 0 0 0 0 0 0 0 0 0 -1 -2 -3 -4 -4 -3 -3 -3 -3 -3 -3 -3 -3 -3 -4 -4 -4 -4 -4 -4 -4 -4 -4 -4
2 2 2 1 1 1 1 1 1 0 0 -0 -0 -0 0 0 0 0 0 1 0 -1 -1 -2 -3 -4 -4 -3 -3 -3 -3 -3 -3 -3 -4 -4 -4 -4 -4 -4 -4 -4 -4 -4
3 3 2 2 1 1 1 1 0 0 -0 -0 -0 -0 -0 0 0 0 0 0 0 0 -0 -1 -3 -4 -4 -4 -4 -4 -4 -4 -4 -4 -4 -4 -4 -4 -4 -4 -4 -4 -4 -4
4 4 3 2 2 2 1 1 1 -0 -1 -1 -1 -1 -1 -0 -0 -0 0 0 0 -0 -0 -1 -2 -3 -3 -3 -4 -4 -4 -4 -4 -4 -4 -4 -4 -4 -4 -4 -4 -4 -5 -5
4 4 4 3 2 2 2 1 1 0 -0 -1 -1 -2 -2 -1 -1 -0 -0 0 -0 -0 -1 -1 -1 -2 -2 -2 -3 -4 -4 -4 -4 -4 -4 -4 -4 -4 -4 -4 -4 -4 -5 -5
4 4 4 3 3 2 2 2 1 0 -0 -1 -2 -2 -2 -2 -1 -1 -0 -0 0 -0 -1 -1 -1 -1 -1 -1 -3 -4 -4 -5 -5 -5 -5 -5 -5 -4 -4 -4 -5 -5 -5 -5
4 4 4 3 3 3 2 2 1 0 -0 -1 -2 -2 -2 -2 -2 -1 -1 -0 0 0 0 -0 -1 -1 -1 -1 -2 -3 -4 -5 -6 -6 -6 -6 -5 -5 -5 -5 -5 -6 -6 -6
4 3 3 3 3 2 2 2 1 1 1 0 0 -0 -0 -0 -1 -1 -1 -0 0 1 0 -0 -1 -1 -1 -1 -2 -2 -4 -5 -6 -6 -6 -6 -6 -6 -6 -6 -6 -6 -6 -6
4 4 4 3 3 2 2 2 2 2 2 2 2 2 2 1 1 1 1 1 1 1 1 -0 -1 -1 -1 -1 -2 -2 -3 -5 -6 -6 -6 -6 -6 -7 -8 -8 -7 -6 -5 -5
4 4 4 4 3 3 3 3 3 3 3 3 3 3 3 3 3 2 2 2 2 2 1 0 -1 -1 -1 -2 -2 -2 -4 -5 -6 -5 -4 -4 -5 -6 -8 -8 -7 -5 -4 -3
4 5 5 5 4 4 4 4 4 4 4 4 4 4 4 4 4 3 3 3 3 3 2 1 0 -0 -0 -1 -2 -3 -4 -5 -5 -4 -3 -2 -2 -3 -6 -6 -5 -3 -1 -0
5 5 5 5 5 4 4 5 5 4 4 4 5 5 5 5 5 4 4 4 4 3 2 1 0 1 0 -1 -2 -3 -4 -4 -4 -3 -2 -1 -0 -1 -4 -5 -3 -1 1 2